Weather History for KIAB - July, 2013

Change the Weather History Date:

Monday, July 1, 2013

  Actual Average Record
Temperature  
Mean Temperature 70 °F -  
Max Temperature 82 °F 87 °F 102 °F (2011)
Min Temperature 59 °F 67 °F 59 °F (2013)
Cooling Degree Days 6    
Growing Degree Days 20 (Base 50)    
Moisture  
Dew Point 52 °F    
Average Humidity 53    
Maximum Humidity 92    
Minimum Humidity 29    
Precipitation  
Precipitation 0.00 in - - ()
Sea Level Pressure  
Sea Level Pressure 30.10 in    
Wind  
Wind Speed 10 mph (NNE)    
Max Wind Speed 15 mph    
Max Gust Speed 21 mph    
Visibility 10 miles    
Events      
Averages and records for this station are not official NWS values.
T = Trace of Precipitation, MM = Missing Value Source: NWS Daily Summary

Daily Weather History Graph

Daily Weather History Graph

Search for Another Location

Airport or City:

Trip Planner

Search our weather history database for the weather conditions in past years. The results will help you decide how hot, cold, wet, or windy it might be!

Date:

Astronomy

Jul. 01, 2013 Rise Set
Actual Time 6:11 AM CDT 8:54 PM CDT
Civil Twilight 5:40 AM CDT 9:25 PM CDT
Nautical Twilight 5:01 AM CDT 10:04 PM CDT
Astronomical Twilight 4:17 AM CDT 10:47 PM CDT
Moon 1:37 AM CDT (7/1) 3:14 PM CDT (7/1)
Length of Visible Light 15h 45m
Length of Day
14h 43m
Waning Crescent, 35% of the Moon is Illuminated
Jul 1
Waning Crescent
Jul 8
New
Jul 15
First Quarter
Jul 22
Full
Jul 29
Last Quarter

Hourly Weather History & Observations

Time (CDT) Temp. Dew Point Humidity Pressure Visibility Wind Dir Wind Speed Gust Speed Precip Events Conditions
12:58 AM 66.0 °F 53.8 °F 65% 30.07 in 10.0 mi North 9.2 mph - N/A   Clear
1:58 AM 66.2 °F 54.3 °F 65% 30.08 in 10.0 mi North 10.4 mph - N/A   Clear
2:58 AM 64.4 °F 54.9 °F 71% 30.07 in 10.0 mi North 10.4 mph - N/A   Clear
3:58 AM 61.2 °F 55.8 °F 82% 30.08 in 10.0 mi North 6.9 mph - N/A   Clear
4:58 AM 61.2 °F 56.3 °F 84% 30.09 in 10.0 mi North 8.1 mph - N/A   Clear
5:58 AM 60.1 °F 56.5 °F 88% 30.10 in 10.0 mi North 9.2 mph - N/A   Clear
6:58 AM 59.2 °F 56.8 °F 92% 30.12 in 10.0 mi NNW 5.8 mph - N/A   Clear
7:58 AM 63.9 °F 58.3 °F 82% 30.12 in 10.0 mi North 8.1 mph - N/A   Clear
8:58 AM 67.3 °F 57.6 °F 71% 30.14 in 10.0 mi NNW 8.1 mph - N/A   Clear
9:58 AM 70.7 °F 55.9 °F 59% 30.15 in 10.0 mi North 11.5 mph - N/A   Clear
10:58 AM 75.2 °F 49.1 °F 40% 30.14 in 10.0 mi NNE 12.7 mph - N/A   Partly Cloudy
11:58 AM 77.0 °F 47.1 °F 35% 30.14 in 10.0 mi NNE 10.4 mph 20.7 mph N/A   Clear
12:58 PM 78.8 °F 46.4 °F 32% 30.13 in 10.0 mi NNE 10.4 mph - N/A   Partly Cloudy
1:58 PM 79.9 °F 49.8 °F 35% 30.12 in 10.0 mi NNE 12.7 mph 17.3 mph N/A   Scattered Clouds
2:58 PM 81.1 °F 48.4 °F 32% 30.11 in 10.0 mi NNE 9.2 mph 18.4 mph N/A   Partly Cloudy
3:58 PM 82.2 °F 48.9 °F 31% 30.09 in 10.0 mi NNE 15.0 mph 20.7 mph N/A   Partly Cloudy
4:58 PM 81.3 °F 48.7 °F 32% 30.08 in 10.0 mi NE 11.5 mph - N/A   Partly Cloudy
5:58 PM 82.2 °F 46.9 °F 29% 30.08 in 10.0 mi North 11.5 mph - N/A   Clear
6:19 PM 82.4 °F 50.0 °F 32% 30.10 in 10.0 mi ENE 12.7 mph 20.7 mph N/A   Clear
6:58 PM 81.0 °F 48.2 °F 32% 30.08 in 10.0 mi East 12.7 mph - N/A   Clear
7:58 PM 78.8 °F 49.6 °F 36% 30.09 in 10.0 mi ENE 11.5 mph - N/A   Clear
8:58 PM 75.2 °F 48.2 °F 38% 30.09 in 10.0 mi ENE 10.4 mph - N/A   Clear
9:58 PM 68.9 °F 50.0 °F 51% 30.11 in 10.0 mi NE 10.4 mph - N/A   Clear
10:58 PM 69.3 °F 49.6 °F 50% 30.12 in 10.0 mi NE 9.2 mph - N/A   Clear
11:58 PM 65.3 °F 50.4 °F 58% 30.12 in 10.0 mi NNE 8.1 mph - N/A   Clear